Grand Etang, Nova Scotia

2:39 PM ADT on September 20, 2017 (GMT -0300)
Grand Etang

Weather History for CWZQ - December, 2013

Change the Weather History Date:

Monday, December 30, 2013

  Actual Average Record
Temperature  
Mean Temperature -1 °F -  
Max Temperature 35 °F - - ()
Min Temperature -37 °F - - ()
Degree Days  
Heating Degree Days 66    
Moisture  
Dew Point 23 °F    
Average Humidity 85    
Maximum Humidity 100    
Minimum Humidity 47    
Precipitation  
Precipitation 0.00 in - - ()
Sea Level Pressure  
Sea Level Pressure 29.60 in    
Wind  
Wind Speed 30 mph ()    
Max Wind Speed 58 mph    
Max Gust Speed 82 mph    
Visibility 3.5 miles    
Events      
T = Trace of Precipitation, MM = Missing Value Source: Averaged Metar Reports

Daily Weather History Graph

Daily Weather History Graph

Search for Another Location

Airport or City:

Trip Planner

Search our weather history database for the weather conditions in past years. The results will help you decide how hot, cold, wet, or windy it might be!

Date:

Astronomy

Dec. 30, 2013 Rise Set
Actual Time 7:48 AM AST 4:25 PM AST
Civil Twilight 7:13 AM AST 5:00 PM AST
Nautical Twilight 6:34 AM AST 5:39 PM AST
Astronomical Twilight 5:58 AM AST 6:15 PM AST
Moon 5:29 AM AST (12/30) 2:57 PM AST (12/30)
Length of Visible Light 9h 47m
Length of Day
8h 37m
Waning Crescent, 5% of the Moon is Illuminated
Dec 30
Waning Crescent
Jan 1
New
Jan 7
First Quarter
Jan 16
Full
Jan 24
Last Quarter

Hourly Weather History & Observations

Time (AST) Temp. Windchill Dew Point Humidity Pressure Visibility Wind Dir Wind Speed Gust Speed Precip Events Conditions
12:00 AM 22.3 °F 5.6 °F 22.1 °F 99% 29.87 in - ESE 25.3 mph 41.4 mph N/A   Unknown
12:20 AM 23.0 °F 6.0 °F 21.4 °F 94% - - ESE 27.6 mph 43.7 mph N/A   Unknown
12:40 AM 23.0 °F 5.1 °F 21.4 °F 94% - - ESE 31.1 mph 42.6 mph N/A   Unknown
1:00 AM 22.8 °F 3.9 °F 21.4 °F 94% 29.80 in - ESE 35.7 mph 48.3 mph N/A   Unknown
1:20 AM 23.2 °F 3.9 °F 21.9 °F 95% - - ESE 38.0 mph 49.5 mph N/A   Unknown
1:40 AM 23.0 °F 3.4 °F 21.7 °F 95% - - ESE 39.1 mph 50.6 mph N/A   Unknown
2:00 AM -35 °F - -42 °F 50% 30.14 in 4 mi North 8.1 mph - -   Light Haze
2:00 AM 23.0 °F 3.4 °F 21.6 °F 94% 29.74 in - East 39.1 mph 56.4 mph N/A   Unknown
2:20 AM 23.5 °F 4.0 °F 22.3 °F 95% - - East 40.3 mph 55.2 mph N/A   Unknown
2:40 AM 24.3 °F 4.8 °F 22.8 °F 94% - - East 41.4 mph 56.4 mph N/A   Unknown
3:00 AM 24.8 °F 5.7 °F 23.4 °F 94% 29.66 in - East 40.3 mph 55.2 mph N/A   Unknown
3:20 AM 25.5 °F 6.5 °F 24.1 °F 94% - - East 41.4 mph 57.5 mph N/A   Unknown
3:40 AM 26.2 °F 7.4 °F 25.2 °F 96% - - East 42.6 mph 58.7 mph N/A   Unknown
4:00 AM 27.0 °F 8.2 °F 25.9 °F 96% 29.55 in - East 43.7 mph 62.1 mph N/A   Unknown
4:20 AM 27.9 °F 9.1 °F 27.0 °F 96% - - East 46.0 mph 64.4 mph N/A   Unknown
4:40 AM 28.6 °F 9.4 °F 27.7 °F 96% - - East 50.6 mph 71.3 mph N/A   Unknown
5:00 AM 28.4 °F 10.0 °F 29.3 °F 100% 29.40 in - East 44.9 mph 64.4 mph N/A   Unknown
5:20 AM 29.1 °F 10.0 °F 28.2 °F 96% - - East 51.8 mph 69.0 mph N/A   Unknown
5:40 AM 31.1 °F 13.8 °F 28.4 °F 90% - - East 44.9 mph 62.1 mph N/A   Unknown
6:00 AM 29.3 °F 10.8 °F 28.4 °F 96% 29.34 in - East 48.3 mph 64.4 mph N/A   Unknown
6:20 AM 31.1 °F 13.6 °F 28.4 °F 90% - - East 46.0 mph 66.7 mph N/A   Unknown
6:40 AM 29.8 °F 11.1 °F 28.9 °F 96% - - East 51.8 mph 70.2 mph N/A   Unknown
7:00 AM 30.6 °F 11.4 °F 29.7 °F 96% 29.18 in - East 57.5 mph 81.7 mph N/A   Unknown
7:20 AM 31.3 °F 12.4 °F 30.2 °F 96% - - East 57.5 mph 78.3 mph N/A   Unknown
7:40 AM 31.8 °F 15.0 °F 30.9 °F 96% - - East 43.7 mph 65.6 mph N/A   Unknown
8:00 AM -35 °F - -43 °F 48% 30.14 in 4 mi NNW 8.1 mph - -   Light Haze
8:00 AM 31.6 °F 14.1 °F 31.5 °F 99% 29.21 in - East 48.3 mph 78.3 mph N/A   Unknown
8:20 AM 33.1 °F 16.0 °F 32.0 °F 96% - - East 49.5 mph 71.3 mph N/A   Unknown
8:40 AM 33.4 °F 16.5 °F 31.8 °F 94% - - East 49.5 mph 72.5 mph N/A   Unknown
9:00 AM 34.3 °F 17.9 °F 30.4 °F 85% 29.20 in - East 48.3 mph 65.6 mph N/A   Unknown
9:20 AM 35.1 °F 19.5 °F 29.5 °F 80% - - East 43.7 mph 61.0 mph N/A   Unknown
9:40 AM 35.1 °F 19.1 °F 28.9 °F 78% - - East 47.2 mph 69.0 mph N/A   Unknown
10:00 AM 35.4 °F 19.7 °F 28.2 °F 75% 29.24 in - East 46.0 mph 64.4 mph N/A   Unknown
10:20 AM 35.6 °F 20.6 °F 27.9 °F 73% - - East 41.4 mph 57.5 mph N/A   Unknown
10:40 AM 36.1 °F 21.9 °F 27.9 °F 72% - - East 38.0 mph 55.2 mph N/A   Unknown
11:00 AM 35.6 °F 21.3 °F 27.0 °F 71% 29.26 in - East 36.8 mph 51.8 mph N/A   Unknown
11:20 AM 36.0 °F 23.0 °F 27.3 °F 71% - - East 29.9 mph 41.4 mph N/A   Unknown
11:40 AM 36.0 °F 23.2 °F 27.3 °F 71% - - East 28.8 mph 43.7 mph N/A   Unknown
12:00 PM 36.1 °F 25.0 °F 27.9 °F 72% 29.29 in - East 21.9 mph 32.2 mph N/A   Unknown
12:20 PM 37.0 °F 29.8 °F 28.4 °F 71% - - East 10.4 mph 19.6 mph N/A   Unknown
12:40 PM 37.4 °F 32.1 °F 29.7 °F 74% - - SE 6.9 mph - N/A   Unknown
1:00 PM 36.3 °F 28.4 °F 29.3 °F 76% 29.38 in - SSW 11.5 mph - N/A   Unknown
1:20 PM 36.0 °F 29.0 °F 30.4 °F 80% - - SSE 9.2 mph - N/A   Unknown
1:40 PM 35.2 °F 28.1 °F 31.3 °F 85% - - SSW 9.2 mph - N/A   Unknown
2:00 PM -34 °F - -42 °F 47% 30.13 in 4 mi North 11.5 mph - -   Light Haze
2:00 PM 35.1 °F 29.3 °F 31.6 °F 87% 29.42 in - South 6.9 mph - N/A   Unknown
2:20 PM 35.1 °F 26.9 °F 30.7 °F 84% - - South 11.5 mph - N/A   Unknown
2:40 PM 34.5 °F 25.3 °F 32.9 °F 94% - - South 13.8 mph 19.6 mph N/A   Unknown
3:00 PM 33.8 °F 22.8 °F 30.9 °F 89% 29.47 in - SSW 18.4 mph - N/A   Unknown
3:20 PM 33.4 °F 24.3 °F 30.6 °F 89% - - SSW 12.7 mph 18.4 mph N/A   Unknown
3:40 PM 33.3 °F 23.7 °F 30.2 °F 89% - - SSW 13.8 mph - N/A   Unknown
4:00 PM 33.1 °F 24.9 °F 29.8 °F 88% 29.48 in - SSW 10.4 mph - N/A   Unknown
4:20 PM 33.1 °F 22.6 °F 30.2 °F 89% - - SW 16.1 mph - N/A   Unknown
4:40 PM 33.1 °F 22.6 °F 30.2 °F 89% - - SW 16.1 mph - N/A   Unknown
5:00 PM 32.9 °F 22.8 °F 30.0 °F 89% 29.54 in - SW 15.0 mph - N/A   Unknown
5:20 PM 31.3 °F 18.9 °F 30.2 °F 96% - - WSW 20.7 mph - N/A   Unknown
5:40 PM 31.3 °F 18.2 °F 30.2 °F 96% - - WSW 23.0 mph - N/A   Unknown
6:00 PM 31.5 °F 17.6 °F 29.5 °F 92% 29.58 in - West 26.5 mph - N/A   Unknown
6:20 PM 31.8 °F 18.4 °F 28.9 °F 89% - - WSW 25.3 mph 31.1 mph N/A   Unknown
6:40 PM 31.6 °F 18.1 °F 27.7 °F 85% - - West 25.3 mph - N/A   Unknown
7:00 PM 30.9 °F 16.4 °F 26.6 °F 84% 29.63 in - WSW 28.8 mph - N/A   Unknown
7:20 PM 30.6 °F 16.2 °F 26.4 °F 85% - - West 27.6 mph 35.7 mph N/A   Unknown
7:40 PM 30.6 °F 15.4 °F 25.2 °F 80% - - West 31.1 mph 38.0 mph N/A   Unknown
8:00 PM -37 °F - -44 °F 48% 30.14 in 2 mi West 5.8 mph - -   Light Haze
8:00 PM 30.0 °F 14.5 °F 24.4 °F 80% 29.67 in - West 32.2 mph 39.1 mph N/A   Unknown
8:20 PM 29.8 °F 14.7 °F 24.4 °F 80% - - West 29.9 mph 38.0 mph N/A   Unknown
8:40 PM 28.8 °F 13.0 °F 23.5 °F 81% - - West 31.1 mph 39.1 mph N/A   Unknown
9:00 PM 28.0 °F 12.0 °F 22.1 °F 78% 29.72 in - West 31.1 mph 38.0 mph N/A   Unknown
9:20 PM 27.0 °F 10.0 °F 20.8 °F 78% - - West 33.4 mph 41.4 mph N/A   Unknown
9:40 PM 25.7 °F 8.3 °F 18.5 °F 74% - - West 33.4 mph 39.1 mph N/A   Unknown
10:00 PM 25.0 °F 7.8 °F 19.2 °F 79% 29.75 in - West 31.1 mph 39.1 mph N/A   Unknown
10:20 PM 24.6 °F 7.9 °F 18.5 °F 78% - - West 28.8 mph 39.1 mph N/A   Unknown
10:40 PM 23.9 °F 6.9 °F 18.1 °F 79% - - West 28.8 mph 38.0 mph N/A   Unknown
11:00 PM 23.9 °F 7.5 °F 19.2 °F 82% 29.79 in - West 26.5 mph 34.5 mph N/A   Unknown
11:20 PM 23.5 °F 5.9 °F 19.4 °F 84% - - West 31.1 mph 38.0 mph N/A   Unknown
11:40 PM 23.2 °F 5.4 °F 19.2 °F 85% - - West 31.1 mph 38.0 mph N/A   Unknown